2021-08-24 00:02:48 r, 19.08m,0000000002Hz,0000234595c,0000000.509s, 026.1C,00002191
2021-08-24 00:12:49 r, 19.02m,0000000002Hz,0000221867c,0000000.481s, 025.7C,00002191
2021-08-24 00:22:50 r, 18.98m,0000000002Hz,0000215986c,0000000.469s, 025.4C,00002191
2021-08-24 00:32:48 r, 18.96m,0000000002Hz,0000209354c,0000000.454s, 025.4C,00002191
2021-08-24 00:42:50 r, 18.90m,0000000002Hz,0000199405c,0000000.433s, 025.1C,00002191
2021-08-24 00:52:49 r, 18.87m,0000000003Hz,0000193076c,0000000.419s, 024.8C,00002191
2021-08-24 01:02:48 r, 18.82m,0000000003Hz,0000184323c,0000000.400s, 024.8C,00002191
2021-08-24 01:12:49 r, 18.75m,0000000003Hz,0000173655c,0000000.377s, 024.8C,00002191
2021-08-24 01:22:51 r, 18.66m,0000000003Hz,0000159614c,0000000.346s, 024.8C,00002191
2021-08-24 01:32:48 r, 18.61m,0000000003Hz,0000152562c,0000000.331s, 024.4C,00002191
2021-08-24 01:42:51 r, 18.51m,0000000003Hz,0000138399c,0000000.300s, 024.4C,00002191
2021-08-24 01:52:49 r, 18.43m,0000000004Hz,0000129660c,0000000.281s, 024.4C,00002191
2021-08-24 02:02:48 r, 18.40m,0000000004Hz,0000125630c,0000000.273s, 024.4C,00002191
2021-08-24 02:12:49 r, 18.11m,0000000005Hz,0000096552c,0000000.210s, 024.4C,00002191
2021-08-24 02:22:50 r, 17.94m,0000000006Hz,0000082481c,0000000.179s, 024.4C,00002191
2021-08-24 02:32:48 r, 17.83m,0000000007Hz,0000074590c,0000000.162s, 024.4C,00002191
2021-08-24 02:42:50 r, 18.06m,0000000005Hz,0000091375c,0000000.198s, 024.4C,00002191
2021-08-24 02:52:49 r, 18.07m,0000000005Hz,0000092226c,0000000.200s, 024.4C,00002191
2021-08-24 03:02:48 r, 17.81m,0000000006Hz,0000073229c,0000000.159s, 024.4C,00002191
2021-08-24 03:12:49 r, 17.82m,0000000006Hz,0000074138c,0000000.161s, 024.4C,00002191
2021-08-24 03:22:51 r, 17.74m,0000000007Hz,0000068259c,0000000.148s, 024.4C,00002191
2021-08-24 03:32:48 r, 17.74m,0000000006Hz,0000068701c,0000000.149s, 024.1C,00002191
2021-08-24 03:42:51 r, 17.79m,0000000006Hz,0000071963c,0000000.156s, 024.1C,00002191
2021-08-24 03:52:49 r, 17.71m,0000000007Hz,0000066892c,0000000.145s, 024.1C,00002191
2021-08-24 04:02:48 r, 17.71m,0000000007Hz,0000066714c,0000000.145s, 024.1C,00002191
2021-08-24 04:12:51 r, 17.73m,0000000006Hz,0000067930c,0000000.147s, 024.1C,00002191
2021-08-24 04:22:49 r, 17.69m,0000000007Hz,0000065281c,0000000.142s, 024.4C,00002191
2021-08-24 04:32:48 r, 17.70m,0000000007Hz,0000066110c,0000000.143s, 024.4C,00002191
2021-08-24 04:42:49 r, 17.74m,0000000007Hz,0000068773c,0000000.149s, 024.4C,00002191
2021-08-24 04:52:50 r, 17.71m,0000000007Hz,0000067017c,0000000.145s, 024.4C,00002191
2021-08-24 05:02:48 r, 17.72m,0000000007Hz,0000067491c,0000000.146s, 024.4C,00002191
2021-08-24 05:12:50 r, 17.72m,0000000007Hz,0000067291c,0000000.146s, 024.4C,00002191
2021-08-24 05:22:49 r, 17.64m,0000000007Hz,0000062188c,0000000.135s, 024.1C,00002191
2021-08-24 05:32:49 r, 17.22m,0000000011Hz,0000042299c,0000000.092s, 024.1C,00002191
2021-08-24 05:42:49 r, 16.26m,0000000026Hz,0000017432c,0000000.038s, 024.1C,00002191
2021-08-24 05:52:51 r, 14.59m,0000000121Hz,0000003774c,0000000.008s, 024.1C,00002191
2021-08-24 06:02:48 r, 12.71m,0000000692Hz,0000000000c,0000000.000s, 023.8C,00002191
2021-08-24 06:12:51 r, 10.82m,0000003980Hz,0000000000c,0000000.000s, 024.1C,00002191
2021-08-24 06:22:49 r, 09.20m,0000017688Hz,0000000000c,0000000.000s, 024.1C,00002191
2021-08-24 06:32:48 r, 08.16m,0000046159Hz,0000000000c,0000000.000s, 024.1C,00002191
2021-08-24 06:42:51 r, 07.44m,0000089607Hz,0000000000c,0000000.000s, 024.1C,00002191
2021-08-24 06:52:49 r, 06.23m,0000273581Hz,0000000000c,0000000.000s, 024.1C,00002191
2021-08-24 07:02:48 r, 00.00m,0000429042Hz,0000000000c,0000000.000s, 024.1C,00002191
2021-08-24 07:12:49 r, 06.44m,0000224494Hz,0000000000c,0000000.000s, 024.4C,00002191
2021-08-24 07:22:51 r, 05.99m,0000340533Hz,0000000000c,0000000.000s, 024.4C,00002191
2021-08-24 07:32:48 r, 00.00m,0000597270Hz,0000000000c,0000000.000s, 024.4C,00002191
2021-08-24 07:42:48 r, 00.00m,0000597178Hz,0000000000c,0000000.000s, 025.4C,00002191
2021-08-24 07:52:51 r, 00.00m,0000597044Hz,0000000000c,0000000.000s, 026.4C,00002191
2021-08-24 08:02:48 r, 00.00m,0000596957Hz,0000000000c,0000000.000s, 027.3C,00002191
2021-08-24 08:12:48 r, 00.00m,0000596926Hz,0000000000c,0000000.000s, 027.3C,00002191
2021-08-24 08:22:49 r, 00.00m,0000596846Hz,0000000000c,0000000.000s, 027.3C,00002191
2021-08-24 08:32:48 r, 00.00m,0000596911Hz,0000000000c,0000000.000s, 027.7C,00002191
2021-08-24 08:42:48 r, 00.00m,0000596907Hz,0000000000c,0000000.000s, 027.0C,00002191
2021-08-24 08:52:49 r, 00.00m,0000469801Hz,0000000000c,0000000.000s, 027.0C,00002191
2021-08-24 09:02:48 r, 00.00m,0000597021Hz,0000000000c,0000000.000s, 026.7C,00002191
2021-08-24 09:12:48 r, 00.00m,0000402219Hz,0000000000c,0000000.000s, 026.4C,00002191
2021-08-24 09:22:50 r, 00.00m,0000457189Hz,0000000000c,0000000.000s, 026.1C,00002191
2021-08-24 09:32:49 r, 00.00m,0000597128Hz,0000000000c,0000000.000s, 025.7C,00002191
2021-08-24 09:42:48 r, 00.00m,0000597093Hz,0000000000c,0000000.000s, 025.7C,00002191
2021-08-24 09:52:51 r, 00.00m,0000597131Hz,0000000000c,0000000.000s, 025.7C,00002191
2021-08-24 10:02:48 r, 00.00m,0000597033Hz,0000000000c,0000000.000s, 026.4C,00002191
2021-08-24 10:12:48 r, 00.00m,0000596847Hz,0000000000c,0000000.000s, 027.3C,00002191
2021-08-24 10:22:51 r, 00.00m,0000596849Hz,0000000000c,0000000.000s, 028.3C,00002191
2021-08-24 10:32:48 r, 00.00m,0000596689Hz,0000000000c,0000000.000s, 028.6C,00002191
2021-08-24 10:42:49 r, 00.00m,0000596841Hz,0000000000c,0000000.000s, 028.3C,00002191
2021-08-24 10:52:49 r, 00.00m,0000596909Hz,0000000000c,0000000.000s, 027.7C,00002191
2021-08-24 11:02:48 r, 00.00m,0000597010Hz,0000000000c,0000000.000s, 027.3C,00002191
2021-08-24 11:12:48 r, 00.00m,0000597067Hz,0000000000c,0000000.000s, 027.0C,00002191
2021-08-24 11:22:49 r, 00.00m,0000596947Hz,0000000000c,0000000.000s, 027.3C,00002191
2021-08-24 11:32:48 r, 00.00m,0000596868Hz,0000000000c,0000000.000s, 027.7C,00002191
2021-08-24 11:42:48 r, 00.00m,0000596784Hz,0000000000c,0000000.000s, 028.3C,00002191
2021-08-24 11:52:51 r, 00.00m,0000596573Hz,0000000000c,0000000.000s, 029.9C,00002191
2021-08-24 12:02:48 r, 00.00m,0000596481Hz,0000000000c,0000000.000s, 030.6C,00002191
2021-08-24 12:12:48 r, 00.00m,0000596605Hz,0000000000c,0000000.000s, 030.2C,00002191
2021-08-24 12:22:51 r, 00.00m,0000596641Hz,0000000000c,0000000.000s, 030.2C,00002191
2021-08-24 12:32:49 r, 00.00m,0000596636Hz,0000000000c,0000000.000s, 029.9C,00002191
2021-08-24 12:42:48 r, 00.00m,0000596676Hz,0000000000c,0000000.000s, 030.2C,00002191
2021-08-24 12:52:49 r, 00.00m,0000596601Hz,0000000000c,0000000.000s, 030.2C,00002191
2021-08-24 13:02:50 r, 00.00m,0000596579Hz,0000000000c,0000000.000s, 030.6C,00002191
2021-08-24 13:12:48 r, 00.00m,0000596395Hz,0000000000c,0000000.000s, 031.9C,00002191
2021-08-24 13:22:50 r, 00.00m,0000596106Hz,0000000000c,0000000.000s, 033.5C,00002191
2021-08-24 13:32:49 r, 00.00m,0000596003Hz,0000000000c,0000000.000s, 035.1C,00002191
2021-08-24 13:42:48 r, 00.00m,0000595809Hz,0000000000c,0000000.000s, 036.4C,00002191
2021-08-24 13:52:49 r, 00.00m,0000595646Hz,0000000000c,0000000.000s, 037.3C,00002191
2021-08-24 14:02:51 r, 00.00m,0000595685Hz,0000000000c,0000000.000s, 037.7C,00002191
2021-08-24 14:12:49 r, 00.00m,0000595604Hz,0000000000c,0000000.000s, 037.7C,00002191
2021-08-24 14:22:51 r, 00.00m,0000595676Hz,0000000000c,0000000.000s, 038.0C,00002191
2021-08-24 14:32:49 r, 00.00m,0000595537Hz,0000000000c,0000000.000s, 038.0C,00002191
2021-08-24 14:42:49 r, 00.00m,0000595388Hz,0000000000c,0000000.000s, 039.6C,00002191
2021-08-24 14:52:51 r, 00.00m,0000595311Hz,0000000000c,0000000.000s, 039.6C,00002191
2021-08-24 15:02:49 r, 00.00m,0000595558Hz,0000000000c,0000000.000s, 038.6C,00002191
2021-08-24 15:12:48 r, 00.00m,0000595249Hz,0000000000c,0000000.000s, 039.9C,00002191
2021-08-24 15:22:49 r, 00.00m,0000595197Hz,0000000000c,0000000.000s, 040.2C,00002191
2021-08-24 15:32:51 r, 00.00m,0000594807Hz,0000000000c,0000000.000s, 043.1C,00002191
2021-08-24 15:42:49 r, 00.00m,0000594539Hz,0000000000c,0000000.000s, 045.1C,00002191
2021-08-24 15:52:50 r, 00.00m,0000594594Hz,0000000000c,0000000.000s, 045.1C,00002191
2021-08-24 16:02:49 r, 00.00m,0000595007Hz,0000000000c,0000000.000s, 042.5C,00002191
2021-08-24 16:12:49 r, 00.00m,0000595116Hz,0000000000c,0000000.000s, 041.2C,00002191
2021-08-24 16:22:51 r, 00.00m,0000595262Hz,0000000000c,0000000.000s, 039.6C,00002191
2021-08-24 16:32:49 r, 00.00m,0000595422Hz,0000000000c,0000000.000s, 038.6C,00002191
2021-08-24 16:42:49 r, 00.00m,0000595502Hz,0000000000c,0000000.000s, 038.3C,00002191
2021-08-24 16:52:51 r, 00.00m,0000595408Hz,0000000000c,0000000.000s, 038.6C,00002191
2021-08-24 17:02:49 r, 00.00m,0000595221Hz,0000000000c,0000000.000s, 039.6C,00002191
2021-08-24 17:12:49 r, 00.00m,0000595571Hz,0000000000c,0000000.000s, 038.0C,00002191
2021-08-24 17:22:49 r, 00.00m,0000595808Hz,0000000000c,0000000.000s, 036.7C,00002191
2021-08-24 17:32:50 r, 00.00m,0000595962Hz,0000000000c,0000000.000s, 035.1C,00002191
2021-08-24 17:42:49 r, 00.00m,0000595995Hz,0000000000c,0000000.000s, 034.4C,00002191
2021-08-24 17:52:50 r, 00.00m,0000596131Hz,0000000000c,0000000.000s, 033.5C,00002191
2021-08-24 18:02:49 r, 00.00m,0000596154Hz,0000000000c,0000000.000s, 032.8C,00002191
2021-08-24 18:12:49 r, 00.00m,0000596201Hz,0000000000c,0000000.000s, 032.5C,00002191
2021-08-24 18:22:51 r, 00.00m,0000596318Hz,0000000000c,0000000.000s, 031.9C,00002191
2021-08-24 18:32:49 r, 00.00m,0000596329Hz,0000000000c,0000000.000s, 031.5C,00002191
2021-08-24 18:42:49 r, 00.00m,0000596465Hz,0000000000c,0000000.000s, 031.2C,00002191
2021-08-24 18:52:51 r, 00.00m,0000596467Hz,0000000000c,0000000.000s, 030.9C,00002191
2021-08-24 19:02:49 r, 00.00m,0000596488Hz,0000000000c,0000000.000s, 030.6C,00002191
2021-08-24 19:12:49 r, 00.00m,0000596499Hz,0000000000c,0000000.000s, 030.9C,00002191
2021-08-24 19:22:49 r, 00.00m,0000596608Hz,0000000000c,0000000.000s, 030.2C,00002191
2021-08-24 19:32:50 r, 05.89m,0000371800Hz,0000000000c,0000000.000s, 029.6C,00002191
2021-08-24 19:42:49 r, 06.55m,0000203356Hz,0000000000c,0000000.000s, 029.3C,00002191
2021-08-24 19:52:50 r, 06.37m,0000238999Hz,0000000000c,0000000.000s, 029.0C,00002191
2021-08-24 20:02:49 r, 06.70m,0000176249Hz,0000000000c,0000000.000s, 029.0C,00002191
2021-08-24 20:12:49 r, 07.58m,0000079346Hz,0000000000c,0000000.000s, 029.0C,00002191
2021-08-24 20:22:50 r, 07.56m,0000079923Hz,0000000000c,0000000.000s, 029.0C,00002191
2021-08-24 20:32:51 r, 09.04m,0000020495Hz,0000000000c,0000000.000s, 028.6C,00002191
2021-08-24 20:42:49 r, 10.95m,0000003524Hz,0000000000c,0000000.000s, 028.6C,00002191
2021-08-24 20:52:51 r, 12.10m,0000001223Hz,0000000000c,0000000.000s, 028.3C,00002191
2021-08-24 21:02:49 r, 14.27m,0000000165Hz,0000000000c,0000000.000s, 028.0C,00002191
2021-08-24 21:12:49 r, 16.78m,0000000017Hz,0000028240c,0000000.061s, 028.0C,00002191
2021-08-24 21:22:51 r, 17.45m,0000000009Hz,0000052316c,0000000.114s, 027.7C,00002191
2021-08-24 21:32:50 r, 18.38m,0000000004Hz,0000123078c,0000000.267s, 027.7C,00002191
2021-08-24 21:42:49 r, 19.30m,0000000002Hz,0000288866c,0000000.627s, 027.7C,00002191
2021-08-24 21:52:50 r, 19.63m,0000000001Hz,0000386562c,0000000.839s, 027.7C,00002191
2021-08-24 22:02:50 r, 19.63m,0000000001Hz,0000386072c,0000000.838s, 027.7C,00002191
2021-08-24 22:12:49 r, 19.76m,0000000001Hz,0000439788c,0000000.954s, 027.3C,00002191
2021-08-24 22:22:50 r, 19.75m,0000000001Hz,0000432929c,0000000.940s, 027.3C,00002191
2021-08-24 22:32:50 r, 19.58m,0000000001Hz,0000370290c,0000000.804s, 027.3C,00002191
2021-08-24 22:42:49 r, 19.98m,0000000001Hz,0000540483c,0000001.173s, 027.3C,00002191
2021-08-24 22:52:51 r, 19.48m,0000000001Hz,0000336072c,0000000.729s, 027.3C,00002191
2021-08-24 23:02:50 r, 19.73m,0000000001Hz,0000427222c,0000000.927s, 027.3C,00002191
2021-08-24 23:12:49 r, 18.85m,0000000003Hz,0000189825c,0000000.412s, 027.0C,00002191
2021-08-24 23:22:51 r, 18.87m,0000000002Hz,0000192881c,0000000.419s, 027.0C,00002191
2021-08-24 23:32:50 r, 18.75m,0000000003Hz,0000173443c,0000000.376s, 027.0C,00002191
2021-08-24 23:42:49 r, 18.93m,0000000003Hz,0000205549c,0000000.446s, 026.7C,00002191
2021-08-24 23:52:50 r, 19.78m,0000000001Hz,0000444447c,0000000.965s, 026.7C,00002191
